Погода в Сан-Антонио

США     29°25′33″N   98°29′28″W
темп.,
°C
ветер,
м/с
пор.,
м/с
влажн.,
%
обл.,
%
осадки,
мм/ч
давл.,
гПа
погр.,
м
15 мая, сб
сб1501:00+20юв4118899 0.0 1019554
04:00+19юв41193100 0.0 1018513
07:00+19юв31096100 0.0 1018479
10:00+22ююв6981100 0.2 1018705
13:00+23ююв4776100 0.5 1018749
16:00+25юв696747 1.4 10151203
19:00+23юв6117858 5.8 1014903
22:00+21юв6128899 1.0 1015767
16 мая, вс
вс1601:00+20юв51393100 1.1 1016746
04:00+20вюв2897100 1.3 1014559
07:00+20юв41198100 1.3 1014698
10:00+23ююв599190 0.6 1015717
13:00+28ю796769 1.2 10121372
16:00+27ююв597073 0.4 10111053
19:00+26юв610760 0.8 1009694
22:00+23юв7139066 0.1 1011611
17 мая, пн
пн1701:00+23ююв6139075 0.1 1012694
04:00+22ююв51193100 0.1 1010745
07:00+22ююв5109399 0.1 1011818
10:00+24ююв598390 0.3 1012917
13:00+29ю696367 0.3 10101435
16:00+33ююв684819 0.0 10071845
19:00+29юв7106817 0.1 1008874
22:00+24юв6128714 0.6 1010582
18 мая, вт
вт1801:00+22юв6149674 0.8 1010682
04:00+23ююв61285100 0.0 1008881
07:00+23ююв51190100 0.2 1009996
10:00+27ююв8117496 0.1 10081175
13:00+28ю61068100 0.3 10081494
16:00+27юв6107399 0.8 1006828
19:00+25юв7147998 17.7 1004774
22:00+23юв51092100 20.6 1007390
19 мая, ср
ср1901:00+23юв4119495 22.7 1009734
04:00+23юв3892100 1.3 1009438
07:00+23юв399339 4.3 1009425
10:00+25ююв698398 6.0 1010739
13:00+26ююв5880100 14.3 1009874
16:00+19всв91496100 21.3 1010594
19:00+18юв61199100 71.9 1011494
22:00+18вюв111793100 22.4 1011536